Year,Month,Day,Hour,Minute,Value (Times are PST for temperature in C)
2013,07,10,00,00,16.40
2013,07,10,00,05,16.40
2013,07,10,00,06,16.40
2013,07,10,00,07,16.40
2013,07,10,00,08,16.40
2013,07,10,00,09,16.40
2013,07,10,00,10,16.40
2013,07,10,00,11,16.40
2013,07,10,00,12,16.40
2013,07,10,00,13,16.40
2013,07,10,00,14,16.40
2013,07,10,00,15,16.40
2013,07,10,00,16,16.30
2013,07,10,00,17,16.30
2013,07,10,00,18,16.30
2013,07,10,00,19,16.30
2013,07,10,00,20,16.30
2013,07,10,00,21,16.30
2013,07,10,00,22,16.30
2013,07,10,00,23,16.30
2013,07,10,00,24,16.30
2013,07,10,00,25,16.20
2013,07,10,00,26,16.20
2013,07,10,00,27,16.20
2013,07,10,00,28,16.20
2013,07,10,00,29,16.20
2013,07,10,00,30,16.10
2013,07,10,00,31,16.20
2013,07,10,00,32,16.10
2013,07,10,00,33,16.10
2013,07,10,00,34,16.10
2013,07,10,00,35,16.10
2013,07,10,00,36,16.10
2013,07,10,00,37,16.10
2013,07,10,00,38,16.10
2013,07,10,00,39,16.10
2013,07,10,00,40,16.10
2013,07,10,00,41,16.00
2013,07,10,00,42,16.00
2013,07,10,00,43,16.10
2013,07,10,00,44,16.10
2013,07,10,00,45,16.10
2013,07,10,00,46,16.10
2013,07,10,00,47,16.10
2013,07,10,00,48,16.10
2013,07,10,00,49,16.10
2013,07,10,00,50,16.10
2013,07,10,00,51,16.10
2013,07,10,00,52,16.10
2013,07,10,00,53,16.00
2013,07,10,00,54,16.00
2013,07,10,00,55,16.00
2013,07,10,00,56,15.90
2013,07,10,00,57,15.90
2013,07,10,00,58,15.80
2013,07,10,00,59,15.80
2013,07,10,01,00,15.80
2013,07,10,01,01,15.80
2013,07,10,01,02,15.80
2013,07,10,01,03,15.80
2013,07,10,01,04,15.80
2013,07,10,01,05,15.80
2013,07,10,01,06,15.70
2013,07,10,01,07,15.70
2013,07,10,01,08,15.70
2013,07,10,01,09,15.60
2013,07,10,01,10,15.60
2013,07,10,01,11,15.60
2013,07,10,01,12,15.60
2013,07,10,01,13,15.50
2013,07,10,01,14,15.50
2013,07,10,01,15,15.40
2013,07,10,01,16,15.40
2013,07,10,01,17,15.40
2013,07,10,01,18,15.30
2013,07,10,01,19,15.30
2013,07,10,01,20,15.30
2013,07,10,01,21,15.30
2013,07,10,01,22,15.30
2013,07,10,01,23,15.30
2013,07,10,01,24,15.30
2013,07,10,01,25,15.30
2013,07,10,01,26,15.30
2013,07,10,01,27,15.20
2013,07,10,01,28,15.20
2013,07,10,01,29,15.20
2013,07,10,01,30,15.20
2013,07,10,01,31,15.20
2013,07,10,01,32,15.20
2013,07,10,01,33,15.20
2013,07,10,01,34,15.20
2013,07,10,01,35,15.20
2013,07,10,01,36,15.20
2013,07,10,01,37,15.20
2013,07,10,01,38,15.20
2013,07,10,01,39,15.20
2013,07,10,01,40,15.20
2013,07,10,01,41,15.30
2013,07,10,01,42,15.30
2013,07,10,01,43,15.30
2013,07,10,01,44,15.30
2013,07,10,01,45,15.30
2013,07,10,01,46,15.40
2013,07,10,01,47,15.40
2013,07,10,01,48,15.40
2013,07,10,01,49,15.40
2013,07,10,01,50,15.30
2013,07,10,01,51,15.30
2013,07,10,01,52,15.30
2013,07,10,01,53,15.30
2013,07,10,01,54,15.30
2013,07,10,01,55,15.30
2013,07,10,01,56,15.30
2013,07,10,01,57,15.30
2013,07,10,01,58,15.30
2013,07,10,01,59,15.30
2013,07,10,02,00,15.30
2013,07,10,02,01,15.20
2013,07,10,02,02,15.20
2013,07,10,02,03,15.20
2013,07,10,02,04,15.20
2013,07,10,02,05,15.20
2013,07,10,02,06,15.20
2013,07,10,02,07,15.20
2013,07,10,02,08,15.10
2013,07,10,02,09,15.10
2013,07,10,02,10,15.10
2013,07,10,02,11,15.10
2013,07,10,02,12,15.00
2013,07,10,02,13,15.00
2013,07,10,02,14,15.00
2013,07,10,02,15,14.90
2013,07,10,02,16,14.90
2013,07,10,02,17,14.90
2013,07,10,02,18,14.90
2013,07,10,02,19,14.80
2013,07,10,02,20,14.80
2013,07,10,02,21,14.80
2013,07,10,02,22,14.70
2013,07,10,02,23,14.70
2013,07,10,02,24,14.70
2013,07,10,02,25,14.70
2013,07,10,02,26,14.70
2013,07,10,02,27,14.60
2013,07,10,02,28,14.60
2013,07,10,02,29,14.60
2013,07,10,02,30,14.50
2013,07,10,02,31,14.50
2013,07,10,02,32,14.50
2013,07,10,02,33,14.50
2013,07,10,02,34,14.40
2013,07,10,02,35,14.40
2013,07,10,02,36,14.40
2013,07,10,02,37,14.30
2013,07,10,02,38,14.40
2013,07,10,02,39,14.40
2013,07,10,02,40,14.40
2013,07,10,02,41,14.40
2013,07,10,02,42,14.40
2013,07,10,02,43,14.40
2013,07,10,02,44,14.40
2013,07,10,02,45,14.40
2013,07,10,02,46,14.40
2013,07,10,02,47,14.40
2013,07,10,02,48,14.40
2013,07,10,02,49,14.40
2013,07,10,02,50,14.30
2013,07,10,02,51,14.30
2013,07,10,02,52,14.40
2013,07,10,02,53,14.30
2013,07,10,02,54,14.30
2013,07,10,02,55,14.30
2013,07,10,02,56,14.30
2013,07,10,02,57,14.30
2013,07,10,02,58,14.20
2013,07,10,02,59,14.20
2013,07,10,03,00,14.20
2013,07,10,03,01,14.20
2013,07,10,03,02,14.10
2013,07,10,03,03,14.10
2013,07,10,03,04,14.10
2013,07,10,03,05,14.00
2013,07,10,03,06,14.00
2013,07,10,03,07,13.90
2013,07,10,03,08,13.90
2013,07,10,03,09,13.90
2013,07,10,03,10,13.90
2013,07,10,03,11,13.90
2013,07,10,03,12,13.90
2013,07,10,03,13,13.90
2013,07,10,03,14,13.90
2013,07,10,03,15,13.90
2013,07,10,03,16,13.90
2013,07,10,03,17,13.80
2013,07,10,03,18,13.80
2013,07,10,03,19,13.80
2013,07,10,03,20,13.80
2013,07,10,03,21,13.80
2013,07,10,03,22,13.70
2013,07,10,03,23,13.70
2013,07,10,03,24,13.70
2013,07,10,03,25,13.70
2013,07,10,03,26,13.60
2013,07,10,03,27,13.60
2013,07,10,03,28,13.60
2013,07,10,03,29,13.60
2013,07,10,03,30,13.60
2013,07,10,03,31,13.60
2013,07,10,03,32,13.60
2013,07,10,03,33,13.60
2013,07,10,03,34,13.60
2013,07,10,03,35,13.60
2013,07,10,03,36,13.60
2013,07,10,03,37,13.60
2013,07,10,03,38,13.60
2013,07,10,03,39,13.60
2013,07,10,03,40,13.60
2013,07,10,03,41,13.60
2013,07,10,03,42,13.50
2013,07,10,03,43,13.50
2013,07,10,03,44,13.50
2013,07,10,03,45,13.50
2013,07,10,03,46,13.50
2013,07,10,03,47,13.50
2013,07,10,03,48,13.50
2013,07,10,03,49,13.40
2013,07,10,03,50,13.50
2013,07,10,03,51,13.50
2013,07,10,03,52,13.60
2013,07,10,03,53,13.60
2013,07,10,03,54,13.60
2013,07,10,03,55,13.60
2013,07,10,03,56,13.60
2013,07,10,03,57,13.60
2013,07,10,03,58,13.60
2013,07,10,03,59,13.60
2013,07,10,04,00,13.60
2013,07,10,04,01,13.60
2013,07,10,04,02,13.60
2013,07,10,04,03,13.60
2013,07,10,04,04,13.60
2013,07,10,04,05,13.60
2013,07,10,04,06,13.50
2013,07,10,04,07,13.50
2013,07,10,04,08,13.40
2013,07,10,04,09,13.40
2013,07,10,04,10,13.40
2013,07,10,04,11,13.40
2013,07,10,04,12,13.40
2013,07,10,04,13,13.40
2013,07,10,04,14,13.40
2013,07,10,04,15,13.40
2013,07,10,04,16,13.40
2013,07,10,04,17,13.40
2013,07,10,04,18,13.40
2013,07,10,04,19,13.40
2013,07,10,04,20,13.40
2013,07,10,04,21,13.40
2013,07,10,04,22,13.40
2013,07,10,04,23,13.40
2013,07,10,04,24,13.30
2013,07,10,04,25,13.30
2013,07,10,04,26,13.30
2013,07,10,04,27,13.30
2013,07,10,04,28,13.30
2013,07,10,04,29,13.30
2013,07,10,04,30,13.30
2013,07,10,04,31,13.30
2013,07,10,04,32,13.40
2013,07,10,04,33,13.30
2013,07,10,04,34,13.30
2013,07,10,04,35,13.30
2013,07,10,04,36,13.30
2013,07,10,04,37,13.30
2013,07,10,04,38,13.30
2013,07,10,04,39,13.30
2013,07,10,04,40,13.30
2013,07,10,04,41,13.30
2013,07,10,04,42,13.30
2013,07,10,04,43,13.30
2013,07,10,04,44,13.30
2013,07,10,04,45,13.30
2013,07,10,04,46,13.30
2013,07,10,04,47,13.30
2013,07,10,04,48,13.30
2013,07,10,04,49,13.20
2013,07,10,04,50,13.20
2013,07,10,04,51,13.20
2013,07,10,04,52,13.20
2013,07,10,04,53,13.20
2013,07,10,04,54,13.20
2013,07,10,04,55,13.20
2013,07,10,04,56,13.10
2013,07,10,04,57,13.10
2013,07,10,04,58,13.20
2013,07,10,04,59,13.20
2013,07,10,05,00,13.20
2013,07,10,05,01,13.20
2013,07,10,05,02,13.20
2013,07,10,05,03,13.20
2013,07,10,05,04,13.20
2013,07,10,05,05,13.10
2013,07,10,05,06,13.20
2013,07,10,05,07,13.20
2013,07,10,05,08,13.20
2013,07,10,05,09,13.20
2013,07,10,05,10,13.10
2013,07,10,05,11,13.10
2013,07,10,05,12,13.10
2013,07,10,05,13,13.10
2013,07,10,05,14,13.10
2013,07,10,05,15,13.10
2013,07,10,05,16,13.10
2013,07,10,05,17,13.10
2013,07,10,05,18,13.10
2013,07,10,05,19,13.10
2013,07,10,05,20,13.10
2013,07,10,05,21,13.00
2013,07,10,05,22,13.00
2013,07,10,05,23,13.00
2013,07,10,05,24,13.00
2013,07,10,05,25,12.90
2013,07,10,05,26,12.90
2013,07,10,05,27,12.90
2013,07,10,05,28,12.90
2013,07,10,05,29,12.90
2013,07,10,05,30,12.90
2013,07,10,05,31,12.90
2013,07,10,05,32,12.80
2013,07,10,05,33,12.90
2013,07,10,05,34,12.80
2013,07,10,05,35,12.80
2013,07,10,05,36,12.80
2013,07,10,05,37,12.80
2013,07,10,05,38,12.80
2013,07,10,05,39,12.80
2013,07,10,05,40,12.80
2013,07,10,05,41,12.80
2013,07,10,05,42,12.80
2013,07,10,05,43,12.80
2013,07,10,05,44,12.90
2013,07,10,05,45,12.90
2013,07,10,05,46,12.90
2013,07,10,05,47,12.90
2013,07,10,05,48,13.00
2013,07,10,05,49,13.00
2013,07,10,05,50,13.00
2013,07,10,05,51,13.00
2013,07,10,05,52,13.00
2013,07,10,05,53,13.10
2013,07,10,05,54,13.00
2013,07,10,05,55,13.10
2013,07,10,05,56,13.00
2013,07,10,05,57,13.00
2013,07,10,05,58,13.00
2013,07,10,05,59,13.00
2013,07,10,06,00,13.00
2013,07,10,06,01,13.00
2013,07,10,06,02,13.10
2013,07,10,06,03,13.10
2013,07,10,06,04,13.10
2013,07,10,06,05,13.10
2013,07,10,06,06,13.10
2013,07,10,06,07,13.10
2013,07,10,06,08,13.10
2013,07,10,06,09,13.10
2013,07,10,06,10,13.10
2013,07,10,06,11,13.10
2013,07,10,06,12,13.10
2013,07,10,06,13,13.10
2013,07,10,06,14,13.10
2013,07,10,06,15,13.20
2013,07,10,06,16,13.20
2013,07,10,06,17,13.20
2013,07,10,06,18,13.20
2013,07,10,06,19,13.20
2013,07,10,06,20,13.20
2013,07,10,06,21,13.20
2013,07,10,06,22,13.30
2013,07,10,06,23,13.30
2013,07,10,06,24,13.30
2013,07,10,06,25,13.30
2013,07,10,06,26,13.30
2013,07,10,06,27,13.40
2013,07,10,06,28,13.40
2013,07,10,06,29,13.40
2013,07,10,06,30,13.40
2013,07,10,06,31,13.50
2013,07,10,06,32,13.50
2013,07,10,06,33,13.60
2013,07,10,06,34,13.60
2013,07,10,06,35,13.60
2013,07,10,06,36,13.70
2013,07,10,06,37,13.70
2013,07,10,06,38,13.70
2013,07,10,06,39,13.80
2013,07,10,06,40,13.80
2013,07,10,06,41,13.80
2013,07,10,06,42,13.90
2013,07,10,06,43,13.90
2013,07,10,06,44,14.00
2013,07,10,06,45,14.00
2013,07,10,06,46,14.00
2013,07,10,06,47,14.10
2013,07,10,06,48,14.10
2013,07,10,06,49,14.10
2013,07,10,06,50,14.20
2013,07,10,06,51,14.20
2013,07,10,06,52,14.30
2013,07,10,06,53,14.30
2013,07,10,06,54,14.30
2013,07,10,06,55,14.40
2013,07,10,06,56,14.50
2013,07,10,06,57,14.50
2013,07,10,06,58,14.60
2013,07,10,06,59,14.70
2013,07,10,07,00,14.70
2013,07,10,07,01,14.80
2013,07,10,07,02,14.90
2013,07,10,07,03,14.90
2013,07,10,07,04,15.00
2013,07,10,07,05,15.10
2013,07,10,07,06,15.10
2013,07,10,07,07,15.20
2013,07,10,07,08,15.20
2013,07,10,07,09,15.30
2013,07,10,07,10,15.30
2013,07,10,07,11,15.40
2013,07,10,07,12,15.40
2013,07,10,07,13,15.40
2013,07,10,07,14,15.40
2013,07,10,07,15,15.50
2013,07,10,07,16,15.50
2013,07,10,07,17,15.60
2013,07,10,07,18,15.60
2013,07,10,07,19,15.60
2013,07,10,07,20,15.60
2013,07,10,07,21,15.60
2013,07,10,07,22,15.70
2013,07,10,07,23,15.70
2013,07,10,07,24,15.70
2013,07,10,07,25,15.70
2013,07,10,07,26,15.70
2013,07,10,07,27,15.70
2013,07,10,07,28,15.70
2013,07,10,07,29,15.70
2013,07,10,07,30,15.70
2013,07,10,07,31,15.70
2013,07,10,07,32,15.70
2013,07,10,07,33,15.70
2013,07,10,07,34,15.70
2013,07,10,07,35,15.70
2013,07,10,07,36,15.70
2013,07,10,07,37,15.70
2013,07,10,07,38,15.70
2013,07,10,07,39,15.80
2013,07,10,07,40,15.80
2013,07,10,07,41,15.80
2013,07,10,07,42,15.80
2013,07,10,07,43,15.70
2013,07,10,07,44,15.70
2013,07,10,07,45,15.80
2013,07,10,07,46,15.80
2013,07,10,07,47,15.70
2013,07,10,07,48,15.80
2013,07,10,07,49,15.80
2013,07,10,07,50,15.80
2013,07,10,07,51,15.80
2013,07,10,07,52,15.80
2013,07,10,07,53,15.80
2013,07,10,07,54,15.80
2013,07,10,07,55,15.80
2013,07,10,07,56,15.80
2013,07,10,07,57,15.80
2013,07,10,07,58,15.80
2013,07,10,07,59,15.90
2013,07,10,08,00,15.90
2013,07,10,08,01,15.90
2013,07,10,08,02,15.90
2013,07,10,08,03,15.90
2013,07,10,08,04,15.90
2013,07,10,08,05,15.80
2013,07,10,08,06,15.80
2013,07,10,08,07,15.90
2013,07,10,08,08,15.90
2013,07,10,08,09,16.00
2013,07,10,08,10,16.00
2013,07,10,08,11,16.00
2013,07,10,08,12,16.00
2013,07,10,08,13,16.00
2013,07,10,08,14,16.10
2013,07,10,08,15,16.10
2013,07,10,08,16,16.10
2013,07,10,08,17,16.10
2013,07,10,08,18,16.10
2013,07,10,08,19,16.20
2013,07,10,08,20,16.20
2013,07,10,08,21,16.10
2013,07,10,08,22,16.10
2013,07,10,08,23,16.10
2013,07,10,08,24,16.10
2013,07,10,08,25,16.20
2013,07,10,08,26,16.20
2013,07,10,08,27,16.20
2013,07,10,08,28,16.20
2013,07,10,08,29,16.10
2013,07,10,08,30,16.10
2013,07,10,08,31,16.10
2013,07,10,08,32,16.10
2013,07,10,08,33,16.20
2013,07,10,08,34,16.20
2013,07,10,08,35,16.20
2013,07,10,08,36,16.30
2013,07,10,08,37,16.30
2013,07,10,08,38,16.40
2013,07,10,08,39,16.40
2013,07,10,08,40,16.30
2013,07,10,08,41,16.30
2013,07,10,08,42,16.20
2013,07,10,08,43,16.20
2013,07,10,08,44,16.20
2013,07,10,08,45,16.20
2013,07,10,08,46,16.30
2013,07,10,08,47,16.30
2013,07,10,08,48,16.40
2013,07,10,08,49,16.50
2013,07,10,08,50,16.60
2013,07,10,08,51,16.60
2013,07,10,08,52,16.60
2013,07,10,08,53,16.60
2013,07,10,08,54,16.60
2013,07,10,08,55,16.60
2013,07,10,08,56,16.50
2013,07,10,08,57,16.50
2013,07,10,08,58,16.40
2013,07,10,08,59,16.50
2013,07,10,09,00,16.50
2013,07,10,09,01,16.50
2013,07,10,09,02,16.50
2013,07,10,09,03,16.50
2013,07,10,09,04,16.60
2013,07,10,09,05,16.60
2013,07,10,09,06,16.50
2013,07,10,09,07,16.40
2013,07,10,09,08,16.40
2013,07,10,09,09,16.40
2013,07,10,09,10,16.40
2013,07,10,09,11,16.40
2013,07,10,09,12,16.40
2013,07,10,09,13,16.40
2013,07,10,09,14,16.30
2013,07,10,09,15,16.30
2013,07,10,09,16,16.30
2013,07,10,09,17,16.40
2013,07,10,09,18,16.40
2013,07,10,09,19,16.40
2013,07,10,09,20,16.50
2013,07,10,09,21,16.50
2013,07,10,09,22,16.60
2013,07,10,09,23,16.60
2013,07,10,09,24,16.60
2013,07,10,09,25,16.60
2013,07,10,09,26,16.50
2013,07,10,09,27,16.50
2013,07,10,09,28,16.40
2013,07,10,09,29,16.40
2013,07,10,09,30,16.40
2013,07,10,09,31,16.40
2013,07,10,09,32,16.40
2013,07,10,09,33,16.40
2013,07,10,09,34,16.40
2013,07,10,09,35,16.50
2013,07,10,09,36,16.60
2013,07,10,09,37,16.60
2013,07,10,09,38,16.60
2013,07,10,09,39,16.50
2013,07,10,09,40,16.40
2013,07,10,09,41,16.40
2013,07,10,09,42,16.40
2013,07,10,09,43,16.40
2013,07,10,09,44,16.40
2013,07,10,09,45,16.40
2013,07,10,09,46,16.40
2013,07,10,09,47,16.40
2013,07,10,09,48,16.40
2013,07,10,09,49,16.30
2013,07,10,09,50,16.30
2013,07,10,09,51,16.30
2013,07,10,09,52,16.30
2013,07,10,09,53,16.30
2013,07,10,09,54,16.30
2013,07,10,09,55,16.30
2013,07,10,09,56,16.30
2013,07,10,09,57,16.40
2013,07,10,09,58,16.40
2013,07,10,09,59,16.50
2013,07,10,10,00,16.60
2013,07,10,10,01,16.70
2013,07,10,10,02,16.80
2013,07,10,10,03,16.90
2013,07,10,10,04,16.90
2013,07,10,10,05,16.90
2013,07,10,10,06,16.90
2013,07,10,10,07,16.90
2013,07,10,10,08,16.90
2013,07,10,10,09,17.00
2013,07,10,10,10,17.00
2013,07,10,10,11,17.10
2013,07,10,10,12,17.10
2013,07,10,10,13,17.10
2013,07,10,10,14,17.10
2013,07,10,10,15,17.10
2013,07,10,10,16,17.10
2013,07,10,10,17,17.20
2013,07,10,10,18,17.20
2013,07,10,10,19,17.30
2013,07,10,10,20,17.30
2013,07,10,10,21,17.30
2013,07,10,10,22,17.30
2013,07,10,10,23,17.30
2013,07,10,10,24,17.30
2013,07,10,10,25,17.40
2013,07,10,10,26,17.50
2013,07,10,10,27,17.50
2013,07,10,10,28,17.60
2013,07,10,10,29,17.70
2013,07,10,10,30,17.70
2013,07,10,10,31,17.70
2013,07,10,10,32,17.70
2013,07,10,10,33,17.70
2013,07,10,10,34,17.70
2013,07,10,10,35,17.80
2013,07,10,10,36,17.70
2013,07,10,10,37,17.70
2013,07,10,10,38,17.60
2013,07,10,10,39,17.60
2013,07,10,10,40,17.60
2013,07,10,10,41,17.70
2013,07,10,10,42,17.70
2013,07,10,10,43,17.80
2013,07,10,10,44,17.90
2013,07,10,10,45,17.90
2013,07,10,10,46,17.80
2013,07,10,10,47,17.80
2013,07,10,10,48,17.80
2013,07,10,10,49,17.80
2013,07,10,10,50,17.90
2013,07,10,10,51,18.00
2013,07,10,10,52,18.10
2013,07,10,10,53,18.20
2013,07,10,10,54,18.20
2013,07,10,10,55,18.20
2013,07,10,10,56,18.20
2013,07,10,10,57,18.20
2013,07,10,10,58,18.20
2013,07,10,10,59,18.20
2013,07,10,11,00,18.20
2013,07,10,11,01,18.20
2013,07,10,11,02,18.20
2013,07,10,11,03,18.20
2013,07,10,11,04,18.20
2013,07,10,11,05,18.20
2013,07,10,11,06,18.20
2013,07,10,11,07,18.30
2013,07,10,11,08,18.30
2013,07,10,11,09,18.30
2013,07,10,11,10,18.30
2013,07,10,11,11,18.30
2013,07,10,11,12,18.30
2013,07,10,11,13,18.40
2013,07,10,11,14,18.40
2013,07,10,11,15,18.30
2013,07,10,11,16,18.40
2013,07,10,11,17,18.50
2013,07,10,11,18,18.60
2013,07,10,11,19,18.70
2013,07,10,11,20,18.70
2013,07,10,11,21,18.60
2013,07,10,11,22,18.40
2013,07,10,11,23,18.30
2013,07,10,11,24,18.20
2013,07,10,11,25,18.20
2013,07,10,11,26,18.10
2013,07,10,11,27,18.10
2013,07,10,11,28,18.10
2013,07,10,11,29,18.10
2013,07,10,11,30,18.10
2013,07,10,11,31,18.20
2013,07,10,11,32,18.20
2013,07,10,11,33,18.20
2013,07,10,11,34,18.20
2013,07,10,11,35,18.30
2013,07,10,11,36,18.40
2013,07,10,11,37,18.50
2013,07,10,11,38,18.50
2013,07,10,11,39,18.60
2013,07,10,11,40,18.60
2013,07,10,11,41,18.70
2013,07,10,11,42,18.70
2013,07,10,11,43,18.80
2013,07,10,11,44,18.80
2013,07,10,11,45,18.80
2013,07,10,11,46,18.80
2013,07,10,11,47,18.90
2013,07,10,11,48,18.90
2013,07,10,11,49,18.90
2013,07,10,11,50,18.90
2013,07,10,11,51,18.90
2013,07,10,11,52,18.90
2013,07,10,11,53,18.90
2013,07,10,11,54,18.90
2013,07,10,11,55,18.90
2013,07,10,11,56,19.00
2013,07,10,11,57,19.00
2013,07,10,11,58,19.10
2013,07,10,11,59,19.20
2013,07,10,12,00,19.20
2013,07,10,12,01,19.30
2013,07,10,12,02,19.30
2013,07,10,12,03,19.20
2013,07,10,12,04,19.10
2013,07,10,12,05,18.90
2013,07,10,12,06,18.90
2013,07,10,12,07,18.90
2013,07,10,12,08,18.90
2013,07,10,12,09,18.90
2013,07,10,12,10,18.80
2013,07,10,12,11,18.80
2013,07,10,12,12,18.80
2013,07,10,12,13,18.70
2013,07,10,12,14,18.60
2013,07,10,12,15,18.60
2013,07,10,12,16,18.70
2013,07,10,12,17,18.60
2013,07,10,12,18,18.70
2013,07,10,12,19,18.80
2013,07,10,12,20,18.80
2013,07,10,12,21,18.90
2013,07,10,12,22,18.90
2013,07,10,12,23,18.90
2013,07,10,12,24,18.90
2013,07,10,12,25,18.90
2013,07,10,12,26,19.00
2013,07,10,12,27,18.90
2013,07,10,12,28,18.90
2013,07,10,12,29,18.90
2013,07,10,12,30,18.80
2013,07,10,12,31,18.80
2013,07,10,12,32,18.80
2013,07,10,12,33,18.80
2013,07,10,12,34,18.80
2013,07,10,12,35,18.80
2013,07,10,12,36,18.90
2013,07,10,12,37,19.00
2013,07,10,12,38,19.00
2013,07,10,12,39,19.10
2013,07,10,12,40,19.20
2013,07,10,12,41,19.20
2013,07,10,12,42,19.30
2013,07,10,12,43,19.30
2013,07,10,12,44,19.30
2013,07,10,12,45,19.40
2013,07,10,12,46,19.60
2013,07,10,12,47,19.60
2013,07,10,12,48,19.60
2013,07,10,12,49,19.60
2013,07,10,12,50,19.70
2013,07,10,12,51,19.70
2013,07,10,12,52,19.60
2013,07,10,12,53,19.50
2013,07,10,12,54,19.40
2013,07,10,12,55,19.40
2013,07,10,12,56,19.30
2013,07,10,12,57,19.20
2013,07,10,12,58,19.20
2013,07,10,12,59,19.30
2013,07,10,13,00,19.20
2013,07,10,13,01,19.20
2013,07,10,13,02,19.20
2013,07,10,13,03,19.20
2013,07,10,13,04,19.10
2013,07,10,13,05,19.10
2013,07,10,13,06,19.10
2013,07,10,13,07,19.00
2013,07,10,13,08,18.90
2013,07,10,13,09,18.80
2013,07,10,13,10,18.80
2013,07,10,13,11,18.80
2013,07,10,13,12,18.80
2013,07,10,13,13,18.80
2013,07,10,13,14,18.90
2013,07,10,13,15,18.90
2013,07,10,13,16,18.90
2013,07,10,13,17,18.90
2013,07,10,13,18,19.00
2013,07,10,13,19,18.90
2013,07,10,13,20,18.90
2013,07,10,13,21,18.90
2013,07,10,13,22,19.00
2013,07,10,13,23,19.00
2013,07,10,13,24,19.00
2013,07,10,13,25,18.90
2013,07,10,13,26,19.00
2013,07,10,13,27,19.00
2013,07,10,13,28,19.10
2013,07,10,13,29,19.10
2013,07,10,13,30,19.00
2013,07,10,13,31,19.00
2013,07,10,13,32,18.90
2013,07,10,13,33,18.90
2013,07,10,13,34,18.90
2013,07,10,13,35,18.80
2013,07,10,13,36,18.90
2013,07,10,13,37,18.90
2013,07,10,13,38,19.00
2013,07,10,13,39,19.00
2013,07,10,13,40,19.10
2013,07,10,13,41,19.10
2013,07,10,13,42,19.00
2013,07,10,13,43,18.90
2013,07,10,13,44,18.90
2013,07,10,13,45,18.80
2013,07,10,13,46,18.70
2013,07,10,13,47,18.70
2013,07,10,13,48,18.70
2013,07,10,13,49,18.60
2013,07,10,13,50,18.60
2013,07,10,13,51,18.50
2013,07,10,13,52,18.50
2013,07,10,13,53,18.60
2013,07,10,13,54,18.70
2013,07,10,13,55,18.80
2013,07,10,13,56,18.90
2013,07,10,13,57,19.00
2013,07,10,13,58,19.10
2013,07,10,13,59,19.20
2013,07,10,14,00,19.20
2013,07,10,14,01,19.20
2013,07,10,14,02,19.30
2013,07,10,14,03,19.40
2013,07,10,14,04,19.50
2013,07,10,14,05,19.50
2013,07,10,14,06,19.50
2013,07,10,14,07,19.40
2013,07,10,14,08,19.40
2013,07,10,14,09,19.50
2013,07,10,14,10,19.50
2013,07,10,14,11,19.50
2013,07,10,14,12,19.40
2013,07,10,14,13,19.30
2013,07,10,14,14,19.30
2013,07,10,14,15,19.20
2013,07,10,14,16,19.20
2013,07,10,14,17,19.30
2013,07,10,14,18,19.30
2013,07,10,14,19,19.40
2013,07,10,14,20,19.50
2013,07,10,14,21,19.60
2013,07,10,14,22,19.60
2013,07,10,14,23,19.60
2013,07,10,14,24,19.50
2013,07,10,14,25,19.30
2013,07,10,14,26,19.20
2013,07,10,14,27,19.20
2013,07,10,14,28,19.20
2013,07,10,14,29,19.20
2013,07,10,14,30,19.20
2013,07,10,14,31,19.20
2013,07,10,14,32,19.20
2013,07,10,14,33,19.20
2013,07,10,14,34,19.10
2013,07,10,14,35,18.90
2013,07,10,14,36,18.90
2013,07,10,14,37,18.90
2013,07,10,14,38,19.00
2013,07,10,14,39,19.00
2013,07,10,14,40,19.10
2013,07,10,14,41,19.00
2013,07,10,14,42,19.00
2013,07,10,14,43,19.00
2013,07,10,14,44,19.00
2013,07,10,14,45,19.10
2013,07,10,14,46,19.20
2013,07,10,14,47,19.30
2013,07,10,14,48,19.40
2013,07,10,14,49,19.30
2013,07,10,14,50,19.30
2013,07,10,14,51,19.20
2013,07,10,14,52,19.10
2013,07,10,14,53,19.10
2013,07,10,14,54,19.10
2013,07,10,14,55,19.10
2013,07,10,14,56,19.20
2013,07,10,14,57,19.40
2013,07,10,14,58,19.50
2013,07,10,14,59,19.70
2013,07,10,15,00,19.80
2013,07,10,15,01,19.70
2013,07,10,15,02,19.70
2013,07,10,15,03,19.60
2013,07,10,15,04,19.60
2013,07,10,15,05,19.60
2013,07,10,15,06,19.70
2013,07,10,15,07,19.80
2013,07,10,15,08,19.80
2013,07,10,15,09,19.80
2013,07,10,15,10,19.90
2013,07,10,15,11,19.80
2013,07,10,15,12,19.80
2013,07,10,15,13,19.70
2013,07,10,15,14,19.60
2013,07,10,15,15,19.50
2013,07,10,15,16,19.50
2013,07,10,15,17,19.50
2013,07,10,15,18,19.60
2013,07,10,15,19,19.70
2013,07,10,15,20,19.70
2013,07,10,15,21,19.70
2013,07,10,15,22,19.70
2013,07,10,15,23,19.70
2013,07,10,15,24,19.60
2013,07,10,15,25,19.60
2013,07,10,15,26,19.70
2013,07,10,15,27,19.80
2013,07,10,15,28,19.90
2013,07,10,15,29,20.00
2013,07,10,15,30,20.10
2013,07,10,15,31,20.20
2013,07,10,15,32,20.30
2013,07,10,15,33,20.40
2013,07,10,15,34,20.50
2013,07,10,15,35,20.50
2013,07,10,15,36,20.60
2013,07,10,15,37,20.80
2013,07,10,15,38,21.00
2013,07,10,15,39,21.10
2013,07,10,15,40,21.20
2013,07,10,15,41,21.40
2013,07,10,15,42,21.60
2013,07,10,15,43,21.70
2013,07,10,15,44,21.90
2013,07,10,15,45,22.10
2013,07,10,15,46,22.30
2013,07,10,15,47,22.50
2013,07,10,15,48,22.70
2013,07,10,15,49,22.80
2013,07,10,15,50,22.90
2013,07,10,15,51,23.00
2013,07,10,15,52,23.10
2013,07,10,15,53,23.20
2013,07,10,15,54,23.30
2013,07,10,15,55,23.30
2013,07,10,15,56,23.40
2013,07,10,15,57,23.40
2013,07,10,15,58,23.40
2013,07,10,15,59,23.40
2013,07,10,16,00,23.30
2013,07,10,16,01,23.40
2013,07,10,16,02,23.40
2013,07,10,16,03,23.50
2013,07,10,16,04,23.50
2013,07,10,16,05,23.50
2013,07,10,16,06,23.60
2013,07,10,16,07,23.50
2013,07,10,16,08,23.50
2013,07,10,16,09,23.50
2013,07,10,16,10,23.50
2013,07,10,16,11,23.50
2013,07,10,16,12,23.50
2013,07,10,16,13,23.40
2013,07,10,16,14,23.40
2013,07,10,16,15,23.40
2013,07,10,16,16,23.40
2013,07,10,16,17,23.30
2013,07,10,16,18,23.30
2013,07,10,16,19,23.20
2013,07,10,16,20,23.10
2013,07,10,16,21,23.00
2013,07,10,16,22,22.90
2013,07,10,16,23,22.90
2013,07,10,16,24,22.80
2013,07,10,16,25,22.80
2013,07,10,16,26,22.80
2013,07,10,16,27,22.80
2013,07,10,16,28,22.80
2013,07,10,16,29,22.80
2013,07,10,16,30,22.80
2013,07,10,16,31,22.80
2013,07,10,16,32,22.70
2013,07,10,16,33,22.60
2013,07,10,16,34,22.50
2013,07,10,16,35,22.50
2013,07,10,16,36,22.50
2013,07,10,16,37,22.40
2013,07,10,16,38,22.40
2013,07,10,16,39,22.30
2013,07,10,16,40,22.30
2013,07,10,16,41,22.30
2013,07,10,16,42,22.30
2013,07,10,16,43,22.30
2013,07,10,16,44,22.30
2013,07,10,16,45,22.40
2013,07,10,16,46,22.40
2013,07,10,16,47,22.40
2013,07,10,16,48,22.40
2013,07,10,16,49,22.40
2013,07,10,16,50,22.40
2013,07,10,16,51,22.40
2013,07,10,16,52,22.50
2013,07,10,16,53,22.50
2013,07,10,16,54,22.50
2013,07,10,16,55,22.50
2013,07,10,16,56,22.50
2013,07,10,16,57,22.50
2013,07,10,16,58,22.50
2013,07,10,16,59,22.50
2013,07,10,17,00,22.60
2013,07,10,17,01,22.70
2013,07,10,17,02,22.80
2013,07,10,17,03,22.80
2013,07,10,17,04,22.80
2013,07,10,17,05,22.90
2013,07,10,17,06,23.00
2013,07,10,17,07,23.10
2013,07,10,17,08,23.10
2013,07,10,17,09,23.20
2013,07,10,17,10,23.30
2013,07,10,17,11,23.30
2013,07,10,17,12,23.20
2013,07,10,17,13,23.20
2013,07,10,17,14,23.10
2013,07,10,17,15,23.10
2013,07,10,17,16,23.00
2013,07,10,17,17,23.00
2013,07,10,17,18,22.90
2013,07,10,17,19,22.90
2013,07,10,17,20,22.80
2013,07,10,17,21,22.80
2013,07,10,17,22,22.70
2013,07,10,17,23,22.70